STARLINK-32208

Last updated on Fri Sep 20 2024 00:02:03 GMT+0000 (Coordinated Universal Time)

1 60598U 24150R 24263.44655388 .00001374 00000+0 44363-4 0 9998 2 60598 53.1593 280.4115 0002191 74.4698 285.6549 15.39609017 5902

Satellite not in orbit

STARLINK-32208